Flag for U.S.A. Weather past 2 weeks in Compton, California, U.S.A.

Now
56 °F

Clear.


Feels Like: 56 °F
Forecast: 40 / 60 °F
Wind: No wind

Location: Hawthorne Municipal Airport

Current Time: Dec 27, 2014 at 7:54:53 PM

Latest Report: Dec 27, 2014 at 6:53 PM


Visibility: 10 mi

Pressure: 30.32 "Hg

Humidity: 46%

Dew point: 35 °F

Location of ComptonLocation

Historic Weather in Compton — Graph

°F

Compton temperature yesterday

Maximum temperature yesterday: 63 °F (at 1:53 PM)
Minimum temperature yesterday: 44 °F (at 6:53 AM)
Average temperature yesterday: 54 °F

Past Weeks' High & Low Weather Summary

 TemperatureHumidityPressure
High83 °F (Dec 23, 12:53 PM)93% (Dec 13, 6:53 AM)30.35 "Hg (Dec 13, 6:53 AM)
Low42 °F (Dec 27, 4:53 AM)12% (Dec 26, 12:53 PM)29.79 "Hg (Dec 25, 12:53 AM)
Average59 °F62%30.07 "Hg
* Reported Dec 12 6:53 PM — Dec 27 6:53 PM, Compton, Weather by CustomWeather, © 2014

Note: Actual official high and low records may vary slightly from our data, if they occured in-between our weather recording intervals... More about our weather records

Advertising

Compton weather history for previous 24 hours

 ConditionsComfort  
Time TempWeatherWind HumidityBarometerVisibility
6:53 PM
Dec 27
56 °FClear.No wind46%30.32 "Hg10 mi
5:53 PM57 °FClear.No wind44%30.32 "Hg10 mi
4:53 PM59 °FClear.5 mph39%30.29 "Hg10 mi
3:53 PM61 °FSunny.8 mph32%30.29 "Hg10 mi
2:53 PM61 °FSunny.8 mph24%30.28 "Hg10 mi
1:53 PM61 °FSunny.8 mph21%30.28 "Hg10 mi
12:53 PM61 °FSunny.7 mph16%30.28 "Hg10 mi
11:53 AM61 °FSunny.7 mph15%30.32 "Hg10 mi
10:53 AM60 °FSunny.5 mph19%30.33 "Hg10 mi
9:53 AM57 °FSunny.No wind24%30.35 "Hg10 mi
8:53 AM52 °FSunny.3 mph32%30.32 "Hg10 mi
7:53 AM44 °FSunny.No wind49%30.30 "Hg10 mi
6:53 AM42 °FClear.No wind53%30.28 "Hg10 mi
5:53 AM42 °FClear.No wind55%30.26 "Hg10 mi
4:53 AM42 °FClear.No wind55%30.25 "Hg10 mi
3:53 AM44 °FClear.No wind49%30.24 "Hg10 mi
2:53 AM45 °FClear.No wind48%30.24 "Hg10 mi
1:53 AM45 °FClear.No wind49%30.22 "Hg10 mi
12:53 AM47 °FClear.No wind44%30.22 "Hg10 mi
11:53 PM
Dec 26
49 °FClear.No wind43%30.22 "Hg10 mi
10:53 PM51 °FClear.3 mph38%30.21 "Hg10 mi
9:53 PM52 °FClear.No wind35%30.19 "Hg10 mi
8:53 PM54 °FClear.No wind38%30.17 "Hg10 mi
7:53 PM55 °FClear.No wind30%30.14 "Hg10 mi
Weather by CustomWeather, © 2014

See weather overviewHow to use our weather pages